Weather History for KNZY - January, 2014

Change the Weather History Date:

Monday, January 20, 2014

  Actual Average Record
Temperature  
Mean Temperature 66 °F -  
Max Temperature 78 °F 61 °F 82 °F (2009)
Min Temperature 53 °F 48 °F 42 °F (2002)
Growing Degree Days 16 (Base 50)    
Moisture  
Dew Point 39 °F    
Average Humidity 44    
Maximum Humidity 59    
Minimum Humidity 17    
Precipitation  
Precipitation 0.00 in - - ()
Sea Level Pressure  
Sea Level Pressure 30.10 in    
Wind  
Wind Speed 4 mph (NNW)    
Max Wind Speed 14 mph    
Max Gust Speed -    
Visibility 10 miles    
Events      
Averages and records for this station are not official NWS values.
T = Trace of Precipitation, MM = Missing Value Source: NWS Daily Summary

Daily Weather History Graph

Daily Weather History Graph

Search for Another Location

Airport or City:

Trip Planner

Search our weather history database for the weather conditions in past years. The results will help you decide how hot, cold, wet, or windy it might be!

Date:

Astronomy

Jan. 20, 2014 Rise Set
Actual Time 6:49 AM PST 5:10 PM PST
Civil Twilight 6:23 AM PST 5:36 PM PST
Nautical Twilight 5:53 AM PST 6:06 PM PST
Astronomical Twilight 5:23 AM PST 6:36 PM PST
Moon 9:31 PM PST (1/20) 9:07 AM PST (1/20)
Length of Visible Light 11h 13m
Length of Day
10h 20m
Waning Gibbous, 82% of the Moon is Illuminated
Jan 20
Waning Gibbous
Jan 23
Last Quarter
Jan 30
New
Feb 6
First Quarter
Feb 14
Full

Hourly Weather History & Observations

Time (PST) Temp. Dew Point Humidity Pressure Visibility Wind Dir Wind Speed Gust Speed Precip Events Conditions
12:52 AM 55.0 °F 41.0 °F 59% 30.09 in 10.0 mi ENE 3.5 mph - N/A   Partly Cloudy
1:52 AM 54.0 °F 39.9 °F 59% 30.09 in 10.0 mi Calm Calm - N/A   Scattered Clouds
2:52 AM 55.0 °F 39.0 °F 55% 30.09 in 10.0 mi Calm Calm - N/A   Scattered Clouds
3:52 AM 55.0 °F 39.9 °F 57% 30.08 in 10.0 mi North 3.5 mph - N/A   Mostly Cloudy
4:52 AM 54.0 °F 39.0 °F 57% 30.08 in 10.0 mi North 3.5 mph - N/A   Scattered Clouds
5:52 AM 53.1 °F 37.9 °F 57% 30.09 in 10.0 mi Calm Calm - N/A   Mostly Cloudy
6:52 AM 53.1 °F 37.0 °F 55% 30.10 in 10.0 mi Calm Calm - N/A   Mostly Cloudy
7:52 AM 57.0 °F 39.0 °F 51% 30.11 in 10.0 mi North 3.5 mph - N/A   Scattered Clouds
8:52 AM 66.0 °F 39.0 °F 37% 30.13 in 10.0 mi NNW 3.5 mph - N/A   Scattered Clouds
9:52 AM 73.0 °F 25.0 °F 17% 30.14 in 10.0 mi North 3.5 mph - N/A   Scattered Clouds
10:52 AM 73.9 °F 36.0 °F 25% 30.13 in 10.0 mi NNW 6.9 mph - N/A   Mostly Cloudy
11:52 AM 78.1 °F 33.1 °F 19% 30.10 in 10.0 mi NW 6.9 mph - N/A   Mostly Cloudy
12:52 PM 78.1 °F 30.0 °F 17% 30.06 in 10.0 mi NW 8.1 mph - N/A   Mostly Cloudy
1:52 PM 73.0 °F 46.9 °F 39% 30.05 in 10.0 mi NNW 11.5 mph - N/A   Mostly Cloudy
2:52 PM 73.0 °F 48.0 °F 41% 30.05 in 10.0 mi NW 12.7 mph - N/A   Mostly Cloudy
3:52 PM 70.0 °F 44.1 °F 39% 30.06 in 10.0 mi NW 13.8 mph - N/A   Mostly Cloudy
4:52 PM 68.0 °F 37.9 °F 33% 30.07 in 10.0 mi NNW 10.4 mph - N/A   Scattered Clouds
5:21 PM - - N/A% - - North - - N/A   Unknown
5:52 PM 66.0 °F 41.0 °F 40% 30.10 in 10.0 mi North 6.9 mph - N/A   Scattered Clouds
6:52 PM 64.0 °F 44.1 °F 48% 30.12 in 10.0 mi Calm Calm - N/A   Scattered Clouds
7:52 PM 63.0 °F 41.0 °F 45% 30.13 in 10.0 mi North 5.8 mph - N/A   Scattered Clouds
8:52 PM 60.1 °F 42.1 °F 51% 30.15 in 9.0 mi Calm Calm - N/A   Scattered Clouds
9:00 PM - - N/A% - - North - - N/A   Unknown
9:52 PM 59.0 °F 39.9 °F 49% 30.16 in 9.0 mi NNW 3.5 mph - N/A   Mostly Cloudy
10:52 PM 60.1 °F 42.1 °F 51% 30.16 in 8.0 mi North 4.6 mph - N/A   Mostly Cloudy
11:52 PM 57.9 °F 39.9 °F 51% 30.16 in 9.0 mi NE 4.6 mph - N/A   Mostly Cloudy